CET,Max TemperatureF,Mean TemperatureF,Min TemperatureF,Max Dew PointF,MeanDew PointF,Min DewpointF,Max Humidity, Mean Humidity, Min Humidity, Max Sea Level PressureIn, Mean Sea Level PressureIn, Min Sea Level PressureIn, Max VisibilityMiles, Mean VisibilityMiles, Min VisibilityMiles, Max Wind SpeedMPH, Mean Wind SpeedMPH, Max Gust SpeedMPH,PrecipitationIn, CloudCover, Events, WindDirDegrees
2012-11-1,37,33,29,31,29,26,93,84,71,29.50,29.35,29.27,0,0,0,9,5,,0.12,,Fog-Rain-Snow,74
2012-11-2,37,33,29,28,25,21,93,75,53,29.86,29.68,29.53,12,4,0,17,9,,0.08,5,Fog-Snow,148
2012-11-3,34,31,28,30,28,25,93,85,67,29.95,29.91,29.86,6,3,0,18,13,,0.01,7,Fog-Rain,142
2012-11-4,37,34,30,34,31,28,87,84,78,29.95,29.86,29.68,0,0,0,17,14,,0.16,,Fog-Rain,173
2012-11-5,40,34,28,36,28,10,87,75,34,29.74,29.55,29.47,12,2,0,21,14,,0.20,1,Fog-Rain-Snow,257
2012-11-6,34,28,23,19,11,6,74,44,21,30.04,29.85,29.68,19,9,6,12,4,,0.00,4,,305
2012-11-7,35,28,20,23,10,0,75,44,18,30.36,30.19,30.06,11,10,9,15,8,,0.00,,,319
2012-11-8,40,34,29,25,22,20,75,59,40,30.36,30.26,30.15,12,12,12,9,4,,0.00,,,68
2012-11-9,41,35,29,25,19,12,75,49,26,30.12,30.10,30.06,7,7,7,13,7,,0.00,8,,90
2012-11-10,38,33,28,34,27,18,100,78,37,30.12,30.04,29.98,7,2,0,17,10,28,0.12,8,Fog-Rain-Snow,143
2012-11-11,38,34,29,33,30,25,87,80,74,30.06,29.91,29.86,2,0,0,18,9,39,2.09,8,Fog-Rain-Snow,142
2012-11-12,39,37,35,36,34,31,87,83,75,30.24,30.16,30.06,6,2,0,9,5,,0.01,6,Fog-Rain,126
2012-11-13,39,36,33,36,32,30,93,84,75,30.39,30.32,30.24,12,6,0,9,3,,0.00,4,Fog,56
2012-11-14,39,34,30,32,27,10,87,73,24,30.36,30.32,30.27,16,8,6,7,4,,0.00,6,,287
2012-11-15,43,38,33,11,-5,-20,31,14,4,30.30,30.17,30.12,7,7,6,8,4,,0.00,,,167
2012-11-16,39,36,32,14,8,0,48,29,11,30.12,30.10,30.09,7,7,7,12,5,,0.00,,,84
2012-11-17,37,33,29,17,14,10,55,42,23,30.09,30.01,29.95,19,19,19,13,6,,0.00,,,120
2012-11-18,38,32,26,31,23,18,87,67,44,29.95,29.94,29.92,19,9,6,18,7,,0.00,6,,123
2012-11-19,40,36,32,37,31,28,100,82,61,30.04,30.00,29.95,19,9,6,6,3,,0.00,7,,110
2012-11-20,42,37,32,31,28,19,81,69,46,30.06,30.04,30.04,19,12,6,6,4,,0.00,,,290
2012-11-21,42,38,34,30,24,16,81,58,24,30.12,30.08,30.06,6,6,6,12,4,,0.00,,,111
2012-11-22,36,34,32,36,31,28,100,87,69,30.21,30.16,30.12,19,4,0,10,5,,0.02,6,Fog-Rain,130
2012-11-23,36,33,30,31,28,25,93,80,67,30.18,30.14,30.12,19,5,0,6,3,,0.00,4,Fog,336
2012-11-24,38,34,29,31,25,17,93,69,34,30.18,30.18,30.18,19,11,6,8,5,,0.00,8,,126
2012-11-25,37,32,27,30,27,23,93,76,56,30.15,30.13,30.12,12,7,6,7,5,,0.00,,,305
2012-11-26,36,34,31,32,30,28,93,85,78,30.04,29.99,29.98,1,0,0,16,9,,0.02,8,Fog-Rain,160
2012-11-27,33,32,32,29,27,27,81,78,75,29.92,29.79,29.71,0,0,0,14,10,,0.04,,Fog-Rain-Snow,152
2012-11-28,33,31,29,27,26,25,80,77,74,29.24,29.21,29.18,0,0,0,12,9,,1.02,,Fog-Snow,112
2012-11-29,30,26,23,26,23,18,86,79,73,29.21,29.17,29.15,6,1,0,14,11,,0.12,8,Fog-Snow,170
2012-11-30,25,23,21,20,18,15,86,80,68,29.47,29.34,29.24,6,4,0,9,7,,0.02,8,Fog-Snow,308